Date String (YYYY-MM-DD hh:mm:ss) UTC,Instrument flags,absolute air pressure of the measurement (hPa),sample flow rate (lpm),inlet stack bypass flow (lpm),air temperature of the measurement (°C),ambient temperature measured by the external sensor (°C),aerosol sample conditioner tube jacket temperature (°C),OPC LED temperature (°C),internal box temperature (°C),relative humidity of the measurement (%),span deviation,mass concentration of particles derived from Lorenz-Mie calculation of OPC scattering (μg/m³),mass concentration of particles derived from Lorenz-Mie calculation of OPC scattering (μg/m³),mass concentration of particles derived from Lorenz-Mie calculation of OPC scattering (μg/m³)
DateTimeUTC,F1_M11,P_M11,Q1_M11,Q2_M11,T1_M11,T2_M11,T3_M11,T4_M11,T5_M11,U1_M11,ZSPAN_M11,X0_M11,X2_M11,X1_M11
2023-09-29 20:00:00,SystemResetWarning,0828.1,5.00,000.00,028.0,025.7,000.0,036.4,029.7,18.7,0002.8,0027.20,0007.81,0005.70
2023-09-29 20:01:00,SystemResetWarning,0828.0,5.00,000.00,028.0,026.1,000.0,036.5,029.8,18.8,0002.7,0026.53,0007.79,0005.68
2023-09-29 20:02:00,SystemResetWarning,0828.1,4.99,000.00,028.0,026.4,000.0,036.5,029.9,18.4,0002.1,0024.35,0007.73,0005.66
2023-09-29 20:03:00,SystemResetWarning,0828.1,5.00,000.00,028.1,026.7,000.0,036.5,029.9,18.3,0001.6,0023.05,0007.72,0005.65
2023-09-29 20:04:00,SystemResetWarning,0828.0,5.00,000.00,028.1,026.9,000.0,036.5,030.0,18.2,0001.7,0023.11,0007.71,0005.63
2023-09-29 20:05:00,SystemResetWarning,0828.0,4.99,000.00,028.2,026.8,000.0,036.5,030.1,18.2,0000.0,0022.63,0007.70,0005.59
2023-09-29 20:06:00,SystemResetWarning,0828.1,4.99,000.00,028.2,025.3,000.0,036.5,029.9,17.9,0000.0,0022.28,0007.65,0005.55
2023-09-29 20:07:00,SystemResetWarning,0828.1,5.00,000.00,028.0,024.3,000.0,036.4,029.7,18.3,0000.0,0020.80,0007.56,0005.50
2023-09-29 20:08:00,SystemResetWarning,0828.0,5.01,000.00,028.0,024.4,000.0,036.4,029.6,18.6,0000.0,0019.01,0007.46,0005.44
2023-09-29 20:09:00,SystemResetWarning,0828.0,5.01,000.00,027.9,024.7,000.0,036.4,029.5,18.5,0000.0,0017.65,0007.32,0005.40
2023-09-29 20:10:00,SystemResetWarning,0828.0,5.00,000.00,027.9,025.2,000.0,036.4,029.5,18.7,0000.0,0017.02,0007.21,0005.35
2023-09-29 20:11:00,SystemResetWarning,0828.0,5.00,000.00,027.9,025.6,000.0,036.4,029.6,18.3,0000.0,0016.97,0007.16,0005.32
2023-09-29 20:12:00,SystemResetWarning,0828.1,4.99,000.00,027.9,026.0,000.0,036.4,029.7,18.2,0000.0,0017.64,0007.05,0005.27
2023-09-29 20:13:00,SystemResetWarning,0828.1,5.00,000.00,028.0,026.3,000.0,036.4,029.8,18.0,0000.0,0018.55,0006.99,0005.23
2023-09-29 20:14:00,SystemResetWarning,0828.0,5.00,000.00,028.0,026.6,000.0,036.4,029.9,18.1,0000.0,0018.25,0006.90,0005.19
2023-09-29 20:15:00,SystemResetWarning,0828.0,4.99,000.00,028.1,026.9,000.0,036.5,030.0,18.1,0000.0,0017.92,0006.78,0005.15
2023-09-29 20:16:00,SystemResetWarning,0828.1,5.00,000.00,028.1,027.1,000.0,036.5,030.0,18.0,0000.0,0017.83,0006.65,0005.12
2023-09-29 20:17:00,SystemResetWarning,0828.1,4.99,000.00,028.2,026.5,000.0,036.5,030.0,17.7,0000.0,0017.47,0006.57,0005.14
2023-09-29 20:18:00,SystemResetWarning,0828.1,5.00,000.00,028.1,024.8,000.0,036.4,029.8,18.0,0000.0,0017.06,0006.54,0005.13
2023-09-29 20:19:00,SystemResetWarning,0828.1,5.02,000.00,028.0,024.2,000.0,036.4,029.7,18.0,0000.0,0017.80,0006.54,0005.13
2023-09-29 20:20:00,SystemResetWarning,0827.9,4.99,000.00,028.0,024.5,000.0,036.3,029.6,18.1,0000.0,0018.85,0006.57,0005.15
2023-09-29 20:21:00,SystemResetWarning,0827.9,4.99,000.00,027.9,024.8,000.0,036.4,029.5,18.1,0000.0,0019.43,0006.56,0005.13
2023-09-29 20:22:00,SystemResetWarning,0827.9,5.00,000.00,027.9,025.3,000.0,036.4,029.6,18.2,0000.0,0019.71,0006.52,0005.08
2023-09-29 20:23:00,SystemResetWarning,0828.0,5.01,000.00,027.9,025.7,000.0,036.4,029.6,18.1,0000.0,0019.39,0006.56,0005.06
2023-09-29 20:24:00,SystemResetWarning,0827.9,5.01,000.00,027.9,026.1,000.0,036.4,029.7,18.4,0000.0,0018.97,0006.55,0005.02
2023-09-29 20:25:00,SystemResetWarning,0827.9,5.00,000.00,028.0,026.4,000.0,036.4,029.8,18.8,0000.0,0019.31,0006.56,0004.96
2023-09-29 20:26:00,SystemResetWarning,0828.0,4.99,000.00,028.0,026.7,000.0,036.4,029.9,18.6,0000.0,0019.87,0006.58,0004.92
2023-09-29 20:27:00,SystemResetWarning,0827.9,5.00,000.00,028.1,026.9,000.0,036.5,030.0,18.5,0000.0,0020.24,0006.59,0004.87
2023-09-29 20:28:00,SystemResetWarning,0828.0,4.99,000.00,028.1,027.1,000.0,036.5,030.0,18.7,0000.0,0021.15,0006.58,0004.82
2023-09-29 20:29:00,SystemResetWarning,0827.9,5.00,000.00,028.2,026.1,000.0,036.5,030.0,18.1,0000.0,0023.59,0006.56,0004.76
2023-09-29 20:30:00,SystemResetWarning,0827.8,5.00,000.00,028.1,024.5,000.0,036.4,029.8,17.9,0000.0,0024.86,0006.55,0004.71
2023-09-29 20:31:00,SystemResetWarning,0827.8,5.02,000.00,028.0,024.3,000.0,036.3,029.7,18.0,0000.0,0023.18,0006.47,0004.65
2023-09-29 20:32:00,SystemResetWarning,0827.9,5.01,000.00,028.0,024.6,000.0,036.3,029.6,18.2,0000.0,0022.64,0006.39,0004.60
2023-09-29 20:33:00,SystemResetWarning,0827.8,5.00,000.00,027.9,025.0,000.0,036.4,029.6,18.6,0000.0,0022.55,0006.33,0004.59
2023-09-29 20:34:00,SystemResetWarning,0827.9,5.00,000.00,027.9,025.5,000.0,036.4,029.6,18.3,0000.0,0022.22,0006.27,0004.57
2023-09-29 20:35:00,SystemResetWarning,0827.8,5.00,000.00,028.0,025.9,000.0,036.4,029.7,18.6,0000.0,0022.23,0006.25,0004.57
2023-09-29 20:36:00,SystemResetWarning,0827.8,5.00,000.00,028.0,026.2,000.0,036.4,029.8,18.9,0000.0,0022.18,0006.16,0004.57
2023-09-29 20:37:00,SystemResetWarning,0827.7,4.99,000.00,028.0,026.5,000.0,036.4,029.9,18.9,0000.0,0021.78,0006.11,0004.56
2023-09-29 20:38:00,SystemResetWarning,0827.8,5.00,000.00,028.1,026.8,000.0,036.5,029.9,18.7,0000.0,0021.40,0006.03,0004.56
2023-09-29 20:39:00,SystemResetWarning,0827.8,5.00,000.00,028.1,027.0,000.0,036.5,030.0,18.6,0000.0,0020.57,0005.99,0004.55
2023-09-29 20:40:00,SystemResetWarning,0827.8,5.00,000.00,028.2,026.4,000.0,036.5,030.0,18.8,0000.0,0018.52,0005.99,0004.53
2023-09-29 20:41:00,SystemResetWarning,0827.8,5.00,000.00,028.1,024.7,000.0,036.4,029.8,18.7,0000.0,0016.79,0005.96,0004.52
2023-09-29 20:42:00,SystemResetWarning,0827.7,5.00,000.00,028.0,024.2,000.0,036.4,029.7,18.8,0000.0,0017.68,0005.95,0004.50
2023-09-29 20:43:00,SystemResetWarning,0827.7,5.01,000.00,028.0,024.5,000.0,036.4,029.6,18.8,0000.0,0018.36,0005.97,0004.50
2023-09-29 20:44:00,SystemResetWarning,0827.7,5.00,000.00,027.9,024.9,000.0,036.4,029.5,19.2,0000.0,0017.90,0005.99,0004.49
2023-09-29 20:45:00,SystemResetWarning,0827.7,5.00,000.00,027.9,025.4,000.0,036.4,029.6,19.2,0000.0,0018.41,0006.06,0004.47
2023-09-29 20:46:00,SystemResetWarning,0827.7,5.00,000.00,027.9,025.8,000.0,036.4,029.7,19.4,0000.0,0018.10,0006.05,0004.45
2023-09-29 20:47:00,SystemResetWarning,0827.7,5.00,000.00,028.0,026.2,000.0,036.4,029.7,19.3,0000.0,0017.11,0006.06,0004.44
2023-09-29 20:48:00,SystemResetWarning,0827.7,5.01,000.00,028.0,026.5,000.0,036.4,029.8,19.1,0000.0,0016.84,0006.06,0004.43
2023-09-29 20:49:00,SystemResetWarning,0827.8,4.99,000.00,028.1,026.8,000.0,036.4,029.9,19.0,0000.0,0017.48,0006.05,0004.40
2023-09-29 20:50:00,SystemResetWarning,0827.8,4.99,000.00,028.1,027.0,000.0,036.5,030.0,18.9,0000.0,0018.28,0006.02,0004.39
2023-09-29 20:51:00,SystemResetWarning,0827.8,4.99,000.00,028.2,026.8,000.0,036.5,030.1,18.9,0000.0,0018.53,0005.96,0004.36
2023-09-29 20:52:00,SystemResetWarning,0827.8,4.99,000.00,028.1,025.1,000.0,036.4,029.8,18.8,0000.0,0018.08,0005.92,0004.35
2023-09-29 20:53:00,SystemResetWarning,0827.8,5.00,000.00,028.0,024.3,000.0,036.4,029.7,19.0,0000.0,0016.61,0005.91,0004.34
2023-09-29 20:54:00,SystemResetWarning,0827.7,5.01,000.00,028.0,024.6,000.0,036.3,029.6,18.5,0000.0,0015.68,0005.88,0004.33
2023-09-29 20:55:00,SystemResetWarning,0827.7,4.99,000.00,027.9,024.9,000.0,036.4,029.6,18.6,0000.0,0016.07,0005.89,0004.32
2023-09-29 20:56:00,SystemResetWarning,0827.7,5.00,000.00,027.9,025.4,000.0,036.4,029.6,18.9,0000.0,0016.87,0005.81,0004.32
2023-09-29 20:57:00,SystemResetWarning,0827.7,5.00,000.00,027.9,025.8,000.0,036.4,029.7,19.2,0000.0,0016.78,0005.80,0004.32
2023-09-29 20:58:00,SystemResetWarning,0827.7,5.00,000.00,028.0,026.2,000.0,036.4,029.8,19.1,0000.0,0017.11,0005.82,0004.32
2023-09-29 20:59:00,SystemResetWarning,0827.7,4.99,000.00,028.0,026.5,000.0,036.4,029.9,18.8,0000.0,0017.33,0005.81,0004.31
